Location: Newark
(48.0000°N, 67.0000°E)
Time: 04:45:04
(UTC+00:00)

DUCHIFAT 1 - Pass Details

Date: 10 April 2020
Orbit: 586 x 604 km, 97.9° (Epoch: 27 May)

Event Time Altitude Azimuth Distance (km) Brightness Sun altitude
Rises 21:58:16 0° 1° (N) 2,835 ? -25.2°
Reaches altitude 10° 22:00:49 10° 346° (NNW) 1,927 ? -24.9°
Enters shadow 22:03:05 20° 315° (NW) 1,386 ? -24.6°
